Location: Auckland
(36.8670°S, 174.7670°E)
Time: 20:24:15
(UTC+12:00)

Cosmos 2237 - Pass Details

Date: 24 January 2019
Orbit: 846 x 856 km, 70.8° (Epoch: 19 April)

Event Time Altitude Azimuth Distance (km) Brightness Sun altitude
Exits shadow 22:25:21 25° 10° (N) 1,671 5.3 -18.6°
Maximum altitude 22:28:29 51° 73° (ENE) 1,080 4.4 -19.0°
Drops below altitude 10° 22:34:02 10° 147° (SSE) 2,508 6.8 -19.8°
Sets 22:36:34 0° 152° (SSE) 3,449 7.6 -20.2°
